Location: ??????????
(54.7560°N, 39.1389°E)
Time: 01:16:26
(UTC+00:00)

Terra - Pass Details

Date: 19 May 2025
Orbit: 690 x 692 km, 98.0° (Epoch: 13 June)

Event Time Altitude Azimuth Distance (km) Brightness Sun altitude
Rises 19:11:30 0° 202° (SSW) 3,054 4.8 -10.4°
Reaches altitude 10° 19:14:09 10° 217° (SW) 2,142 4.1 -10.6°
Maximum altitude 19:17:53 23° 269° (W) 1,454 3.8 -10.9°
Drops below altitude 10° 19:21:38 10° 322° (NW) 2,155 5.8 -11.1°
Sets 19:24:19 0° 337° (NNW) 3,077 7.3 -11.3°
